Погода в Бельго

Россия / Хабаровский край     50°38′59″N   137°15′27″E
темп.,
°C
ветер,
м/с
пор.,
м/с
влажн.,
%
обл.,
%
осадки,
мм/ч
давл.,
гПа
погр.,
м
20 января, чт
чт2001:00−24ю0110096 0.0 102811
04:00−25ю11100100 0.1 102813
07:00−25ююв01100100 0.1 102912
10:00−23ю019894 0.1 103074
13:00−17зсз1188100 0.0 1028365
16:00−16зсз118698 0.1 1028325
19:00−23ююз1110075 0.0 103012
22:00−25ю1110092 0.0 103110
21 января, пт
пт2101:00−27ююв1110098 0.0 103113
04:00−27ююв1110099 0.0 103222
07:00−27юв12100100 0.0 103337
10:00−25ююв2498100 0.1 1033173
13:00−21ю3592100 0.0 1033449
16:00−20ю3592100 0.1 1031475
19:00−25юв1110093 0.0 103217
22:00−27юв2110092 0.0 103222
22 января, сб
сб2201:00−28юв11100100 0.0 103221
04:00−28юв11100100 0.0 103224
07:00−28юв12100100 0.0 103232
10:00−26ююв2310097 0.1 1032120
13:00−21ююв3692100 0.0 1031406
16:00−20ю3692100 0.0 1030448
19:00−25юв2210072 0.0 103029
22:00−27вюв2110085 0.0 103026
23 января, вс
вс2301:00−27юв11100100 0.0 103027
04:00−27юв12100100 0.1 102933
07:00−28юв11100100 0.0 102923
10:00−26ююв1299100 0.1 1029116
13:00−21ю2491100 0.0 1028390
16:00−21ю2491100 0.0 1027389
19:00−26юв1110055 0.0 102714
22:00−28юв1110079 0.0 102720
24 января, пн
пн2401:00−28юв1110096 0.0 102726
04:00−28юв22100100 0.0 102742
07:00−28юв23100100 0.0 102759
10:00−26юв2599100 0.1 1027191
13:00−22ю3691100 0.0 1026465
16:00−20ю3591100 0.1 1025494
19:00−25вюв1110076 0.0 102611
22:00−27вюв1110086 0.0 102610